Wind_Speed
6 5 3 2 3 3 4 5 5 5 4 3 2 2 3 4 5 5 5 6 6 7 8 8 8 7 6 5 5 5 5 6 6 7 9 11 12 12 12 12 11 11 11 11 11 11 11 11 12 12 12 12 12 11 10 9 8 7 6 5 4 2 2 2 1 1 1 1 1 1 2 2 3 3 4 5 6 6 7 7 8 9 9 9 10
6 5 4 3 3 4 4 5 5 5 5 3 2 0 2 3 4 5 4 5 6 6 7 7 8 7 6 6 5 5 5 6 6 8 10 11 13 13 13 12 12 12 11 11 11 11 11 11 12 12 13 13 13 12 11 10 9 8 6 6 5 4 3 3 3 2 2 2 2 2 2 2 2 3 4 5 6 6 7 8 9 9 10 10 11
6 5 4 4 4 4 5 5 6 6 5 4 3 2 1 2 2 3 4 4 5 5 6 6 7 7 7 6 5 5 6 6 7 8 10 12 13 13 13 13 13 12 12 12 12 11 11 12 12 13 13 13 13 12 11 10 9 8 7 6 5 5 5 4 4 4 3 3 3 3 3 3 3 4 5 5 6 7 7 8 9 10 10 11 11
7 6 5 4 4 5 5 6 6 6 6 5 4 3 1 2 2 2 2 3 4 4 5 6 6 7 6 6 5 5 6 7 7 8 10 12 13 13 13 13 13 13 12 12 12 12 12 12 12 13 13 13 13 12 12 10 9 8 8 7 6 6 6 6 5 5 5 5 5 5 5 5 5 5 6 6 7 7 8 9 9 10 11 12 12
8 8 6 5 5 5 5 6 7 7 7 6 5 3 2 2 2 1 0 1 2 3 4 5 5 6 6 5 5 5 6 7 7 9 10 12 13 13 13 13 13 13 12 12 12 12 12 12 12 13 13 13 13 12 11 10 9 9 8 8 7 6 6 6 6 7 7 7 7 7 6 6 7 7 7 7 8 8 9 10 10 11 12 13 13
10 9 7 7 6 6 7 7 8 9 8 7 5 3 2 2 3 3 2 1 1 2 3 3 4 5 5 5 5 5 5 6 7 8 10 11 12 13 13 13 13 13 13 12 13 12 12 12 13 13 13 13 13 12 11 10 10 9 9 8 8 7 6 6 7 7 7 8 8 8 8 8 9 9 9 9 9 10 10 11 11 12 13 14 15
11 10 9 8 8 8 8 8 9 9 9 7 4 2 1 2 3 3 3 2 2 1 1 2 3 4 4 5 5 5 5 5 6 7 8 10 11 12 12 12 12 12 13 13 13 13 13 13 13 13 13 13 13 12 12 11 10 10 9 9 8 7 6 7 6 7 7 7 9 10 10 10 10 10 10 10 11 11 11 12 12 13 14 15 16
12 11 10 9 9 9 9 9 10 10 8 6 3 2 1 1 2 3 3 3 3 2 2 1 1 2 3 3 4 4 4 4 5 6 7 8 10 11 11 11 11 12 12 13 13 13 13 13 13 13 13 13 13 13 13 12 10 10 9 9 7 6 6 7 7 6 5 6 8 9 10 11 12 12 12 11 12 12 12 12 13 14 15 16 17
13 12 11 11 10 9 10 10 11 10 9 6 3 2 1 0 1 2 2 3 4 4 3 3 2 2 2 2 3 3 4 4 4 5 6 7 8 9 10 10 11 11 11 12 13 13 14 14 14 13 13 13 13 13 13 12 11 10 9 9 7 6 6 6 8 7 6 6 7 9 10 11 12 12 13 12 13 13 13 13 14 15 16 17 17
14 13 13 12 11 10 11 12 12 12 11 11 9 6 4 2 1 1 2 3 4 4 4 4 4 3 3 2 2 2 3 3 4 5 5 6 7 8 9 9 10 10 11 12 12 13 14 14 14 14 13 13 13 13 13 13 12 10 9 7 7 7 6 6 8 8 7 6 7 8 9 10 11 12 13 13 13 13 14 14 14 15 16 16 17
14 14 14 13 12 12 12 13 13 14 14 14 13 10 6 3 2 2 2 3 4 5 5 5 4 4 4 3 2 1 2 3 3 4 5 5 6 7 8 8 9 9 10 11 12 13 13 14 14 14 13 13 12 13 13 13 13 11 9 7 7 9 9 8 7 8 8 7 8 7 6 7 9 11 12 13 13 13 14 14 15 15 16 16 17
15 15 14 13 13 13 14 14 14 14 12 9 9 8 6 4 3 3 3 3 4 5 5 5 5 4 4 4 3 2 1 2 3 4 5 5 6 6 7 8 8 9 9 10 11 12 13 13 14 14 13 13 12 13 14 14 13 12 10 9 8 9 10 9 9 9 9 9 7 4 4 6 8 10 11 12 12 13 13 14 15 15 16 16 17
16 15 15 14 14 14 15 14 14 14 10 6 6 7 6 5 4 3 3 3 4 5 6 6 5 5 4 4 3 2 1 1 3 4 4 5 5 6 7 7 8 8 9 10 11 12 12 13 13 13 13 13 13 13 14 14 12 11 10 10 9 10 10 10 10 9 9 8 4 4 8 9 9 11 11 11 12 12 13 14 15 15 16 16 17
17 16 15 15 15 15 16 16 15 15 12 9 9 10 8 7 5 4 4 4 4 5 6 6 6 5 4 4 3 3 1 1 2 4 4 5 5 6 7 7 8 8 9 10 11 11 12 12 13 13 13 13 13 14 14 14 12 10 10 11 11 11 11 11 10 10 9 8 5 7 11 11 10 11 12 12 12 12 13 14 15 16 16 17 17
18 17 16 16 16 16 17 18 17 16 14 12 12 13 12 9 7 5 5 5 4 5 6 6 6 5 5 4 3 3 2 2 2 3 4 5 5 6 7 7 8 8 9 10 10 11 12 12 13 13 13 13 13 14 14 13 11 10 10 11 12 12 13 12 11 10 9 7 7 9 12 12 12 13 13 13 13 13 14 14 15 16 17 17 18
20 18 18 17 16 17 18 19 20 17 15 14 12 13 12 9 8 7 6 5 5 5 6 7 7 6 5 4 3 3 3 3 3 3 4 5 5 6 7 7 8 8 9 9 10 11 12 12 12 13 13 13 13 13 13 13 11 10 10 11 12 12 13 13 12 10 9 8 8 10 12 13 13 14 14 14 14 14 14 15 16 17 17 18 18
20 19 18 18 18 18 19 21 21 19 17 14 10 11 11 10 9 8 7 7 6 6 7 7 7 7 6 5 4 4 4 4 4 4 4 5 5 6 7 8 8 8 9 9 10 10 11 12 12 12 12 12 13 13 13 12 11 11 11 11 12 12 12 12 11 10 9 8 9 11 14 14 14 15 15 15 15 15 15 15 16 17 18 18 18
20 20 20 19 20 20 21 22 22 20 18 14 12 14 14 12 11 10 9 8 7 7 7 8 8 8 7 6 6 6 6 5 5 5 5 6 6 6 7 8 8 9 9 9 10 10 11 12 12 12 12 12 12 12 12 12 11 11 11 11 11 12 11 11 10 10 9 9 10 13 14 14 14 15 15 15 15 15 15 16 17 18 18 18 18
22 22 21 22 22 22 22 23 23 22 19 15 16 18 17 16 14 12 12 10 9 9 8 8 8 9 8 8 7 7 7 7 6 6 6 6 6 7 7 8 9 9 9 10 10 11 11 12 12 13 13 13 12 12 12 11 10 10 11 11 11 11 11 10 10 10 10 11 12 13 14 14 14 14 15 15 15 15 15 16 18 18 18 18 18
25 25 24 24 24 24 24 24 25 23 20 18 18 20 20 18 16 15 14 12 11 11 10 10 9 9 9 9 9 9 9 8 8 7 7 7 7 7 8 9 9 10 10 10 11 11 12 12 13 13 13 13 12 12 12 11 10 11 11 11 11 10 10 10 10 10 11 12 13 14 14 14 14 14 14 14 14 14 15 17 18 19 18 18 18
26 26 26 25 26 26 25 25 26 24 22 21 21 21 21 20 19 18 17 14 12 12 12 11 10 9 9 9 9 9 10 10 9 8 8 8 8 8 8 9 10 10 11 11 11 12 12 13 14 14 14 13 13 12 11 11 10 11 11 11 10 9 9 9 10 11 12 13 13 14 14 14 14 14 14 14 13 14 15 17 18 18 18 18 18
27 28 27 27 28 28 26 26 27 25 24 24 23 22 21 20 19 19 19 16 14 14 13 12 11 10 10 9 9 9 10 10 10 9 9 8 8 8 9 10 11 11 11 11 12 12 13 14 14 14 14 14 13 12 11 11 11 11 12 11 9 9 9 9 9 10 12 12 13 14 14 14 14 14 14 13 13 14 16 17 18 17 17 18 19
28 29 29 28 29 28 27 27 27 26 25 24 23 22 21 20 19 18 19 18 16 14 13 12 12 11 11 9 9 9 10 10 10 10 9 8 8 8 9 10 11 12 12 12 12 13 14 15 15 15 15 14 13 12 12 11 11 10 11 10 9 9 9 9 10 10 11 12 13 14 14 13 14 14 14 13 14 15 16 17 17 17 17 18 19
33 32 31 30 30 29 27 26 25 25 25 24 23 21 21 20 18 18 19 18 16 14 13 12 12 11 10 9 9 9 9 10 10 10 9 8 8 8 9 11 12 13 12 12 13 14 15 15 16 16 15 15 14 12 12 11 10 10 10 10 10 9 9 10 11 11 11 12 13 13 14 14 14 14 14 14 15 16 16 16 16 17 17 18 18
39 37 33 32 30 29 28 26 24 24 22 22 21 20 20 19 18 18 18 17 16 14 13 12 11 10 9 9 9 9 9 9 9 9 8 8 8 8 9 11 12 13 13 13 14 15 15 16 16 16 16 15 14 12 12 11 10 10 11 10 10 10 10 11 11 11 12 13 13 14 15 15 15 14 14 14 15 16 16 16 17 17 18 18 19
41 40 35 32 29 28 27 25 24 22 20 20 20 19 19 18 17 17 17 16 16 14 12 12 10 9 9 8 8 9 9 9 9 9 9 9 9 9 10 11 12 12 13 13 14 15 16 16 17 17 16 15 14 12 11 11 12 11 11 11 10 10 11 11 10 12 13 14 14 15 15 15 15 14 14 15 15 16 16 16 17 17 18 19 19
36 38 35 32 29 28 26 25 23 21 21 21 20 18 17 17 16 16 15 15 13 12 11 10 9 7 7 7 7 8 8 9 9 9 9 9 9 10 11 11 11 12 13 13 14 15 16 17 17 17 16 15 14 12 10 11 12 12 11 10 9 9 9 10 11 13 14 14 15 15 15 15 15 14 14 15 15 16 16 17 17 18 18 19 19
34 34 34 33 31 29 28 26 24 22 21 20 19 18 16 16 15 15 14 12 11 9 9 8 7 6 5 5 6 7 8 8 9 8 8 9 10 10 10 11 11 12 13 13 14 14 16 16 16 17 16 16 14 12 10 11 12 11 11 10 10 9 8 10 12 14 14 14 15 15 15 15 15 15 15 15 15 16 16 17 17 18 18 19 20
39 36 36 35 35 34 31 29 26 23 22 20 19 17 15 15 15 15 13 11 10 9 9 8 6 6 5 4 4 6 6 7 7 7 8 8 9 9 9 10 11 11 12 13 14 14 15 16 16 16 16 16 15 13 12 11 11 10 10 10 11 11 9 10 13 14 14 15 15 15 15 15 15 14 14 15 15 15 16 17 17 18 18 19 20
35 38 38 37 37 37 34 31 28 25 23 21 19 17 15 15 16 15 13 12 11 10 9 8 7 6 5 4 4 5 5 6 6 6 6 7 7 8 9 10 10 11 12 13 14 15 15 15 16 16 16 17 16 15 12 11 11 10 10 11 12 11 9 11 13 14 15 16 15 15 15 14 14 14 15 15 15 15 16 17 17 18 19 20 21
33 35 37 36 37 37 35 32 29 26 23 21 20 17 15 15 15 15 14 13 11 10 9 8 7 6 5 4 4 4 4 5 5 5 5 6 7 7 8 9 10 11 12 13 14 15 15 15 16 16 16 16 16 15 13 12 12 12 12 12 12 10 9 10 13 15 15 16 15 15 14 14 14 14 14 14 15 15 16 17 18 18 19 20 21
34 33 32 33 34 36 37 33 29 27 24 23 21 19 16 15 15 15 14 13 12 10 9 7 6 5 5 4 4 3 3 4 4 5 5 6 6 7 8 9 10 11 12 14 15 16 16 16 16 15 15 15 15 14 13 13 14 14 14 14 13 11 11 11 14 16 16 15 15 15 14 14 14 14 14 14 14 15 16 17 18 18 19 20 21
33 31 32 34 34 35 37 33 30 28 25 25 23 20 18 16 15 15 15 13 12 10 8 7 6 5 4 4 3 3 3 4 4 4 5 5 6 7 8 9 10 12 13 15 16 17 17 16 16 16 15 15 14 13 14 14 14 15 15 15 14 13 13 12 14 17 16 14 14 15 14 14 14 13 13 13 14 15 16 17 17 18 19 20 21
29 23 25 34 38 36 36 33 30 29 26 25 24 21 20 18 17 17 15 14 12 10 9 7 6 5 5 4 4 3 3 4 4 4 5 5 6 7 8 10 11 13 14 16 17 17 17 17 18 16 15 14 14 14 15 16 15 15 15 15 15 14 14 12 13 15 17 15 13 14 13 13 12 13 13 13 13 14 15 16 17 18 19 20 22
33 25 21 29 37 38 36 33 30 29 26 25 24 22 22 21 20 18 17 15 12 10 9 7 7 6 5 5 5 4 4 4 4 4 5 5 6 7 9 11 13 15 16 18 19 18 18 19 19 17 15 15 16 16 16 16 15 15 15 15 15 15 14 13 12 13 15 15 14 13 13 12 11 12 12 13 13 15 16 17 18 19 19 21 22
39 38 32 27 33 38 35 31 29 28 27 25 24 23 23 22 22 20 18 15 13 10 8 7 7 6 6 6 6 5 5 5 4 4 5 6 7 9 11 13 15 17 18 19 20 19 20 21 19 17 17 16 17 17 17 17 16 16 15 15 16 16 15 14 13 13 13 13 13 13 14 13 13 13 12 13 15 15 16 17 18 19 20 21 23
39 42 38 30 29 34 30 27 27 26 26 25 24 24 23 23 23 21 18 15 13 10 8 8 8 7 7 6 6 6 5 5 5 5 5 7 8 10 12 14 16 18 19 19 20 20 21 21 19 18 18 17 17 17 17 16 16 16 16 15 16 16 15 15 13 13 12 11 11 11 13 14 15 16 15 14 14 15 16 17 17 18 20 22 24
37 39 38 34 33 31 25 24 25 25 25 25 25 25 24 25 24 22 19 16 13 11 9 9 9 8 8 7 7 7 6 6 6 6 6 7 9 11 13 15 17 18 19 20 21 21 21 21 20 20 19 18 16 16 17 16 16 16 16 16 16 16 16 15 14 14 13 11 10 9 10 11 13 16 16 13 12 15 16 17 17 18 20 23 24
36 38 37 36 38 35 29 23 21 23 25 26 25 25 26 26 26 23 19 16 14 12 11 10 10 9 9 8 7 7 6 7 7 7 7 8 10 11 13 15 17 19 20 20 21 21 22 22 21 20 20 18 17 17 17 16 16 16 16 16 16 16 16 16 15 14 12 10 10 8 7 8 8 11 15 14 13 14 16 17 17 18 20 22 24
36 37 37 36 37 37 33 26 20 21 25 27 26 26 27 28 28 25 21 18 16 14 13 12 11 10 10 8 7 8 7 7 8 8 8 9 10 12 13 15 17 19 21 22 22 22 22 22 21 20 20 19 17 17 16 15 15 16 16 16 16 16 16 16 15 15 13 10 10 9 8 7 7 8 13 16 16 15 16 17 18 19 20 22 23
38 38 38 36 36 37 37 34 30 27 28 28 27 27 29 30 29 28 25 22 19 17 15 14 12 11 10 9 7 8 8 8 8 9 9 9 10 12 13 15 17 19 21 22 23 23 23 23 22 20 20 19 18 16 15 14 14 15 16 16 16 16 16 16 15 14 15 12 11 12 11 11 10 9 11 14 17 18 17 17 18 20 21 22 24
42 41 40 38 38 39 40 40 40 36 32 31 30 29 30 32 32 31 30 28 24 20 17 15 13 11 11 10 8 8 9 9 8 9 10 10 11 12 13 14 16 19 21 22 22 23 23 23 22 21 20 19 18 16 15 14 15 15 16 16 16 17 17 16 15 13 15 14 12 12 13 14 14 12 11 12 15 18 18 17 18 21 22 23 25
45 42 40 40 40 40 41 41 42 40 37 34 33 31 32 34 34 33 34 32 29 25 21 17 14 12 11 10 9 8 9 9 9 9 10 11 12 13 13 14 16 18 20 21 22 24 23 23 22 21 20 19 18 16 14 14 15 15 16 16 16 17 17 16 15 13 13 15 14 12 12 13 16 16 13 13 14 17 19 18 17 19 22 23 25
44 41 41 43 43 42 41 41 41 42 41 39 36 34 34 36 36 35 36 35 33 29 24 20 17 13 12 11 11 9 9 10 10 10 11 12 13 14 14 14 16 18 20 21 22 24 24 23 22 21 20 19 18 15 14 14 14 15 15 16 17 17 17 16 16 14 12 13 15 15 13 12 15 17 16 15 15 16 18 20 18 18 20 23 25
43 41 41 44 45 43 41 41 40 42 45 44 40 37 36 37 37 36 36 36 35 32 27 22 20 17 14 13 13 11 9 9 11 11 11 13 14 15 15 15 15 18 20 21 22 24 24 23 22 21 20 20 18 16 16 15 15 15 15 16 17 17 18 16 16 15 13 13 14 16 16 14 14 17 18 17 18 18 19 21 21 20 21 23 25
46 44 42 43 45 43 43 43 42 42 46 47 45 41 39 39 38 36 36 36 35 34 30 27 25 22 19 16 14 12 9 8 9 10 12 14 16 16 16 15 16 17 20 21 22 23 24 23 22 21 20 20 19 18 17 17 16 16 15 16 17 17 18 18 17 16 15 15 15 16 17 15 13 15 18 18 18 20 20 20 22 23 23 24 25
48 47 44 43 43 42 42 45 45 43 45 47 46 44 42 40 39 36 35 37 38 36 34 32 29 27 24 19 14 12 9 8 8 10 12 15 16 17 17 17 16 17 19 20 21 23 23 23 22 21 20 20 20 18 17 17 17 17 16 16 16 17 18 18 17 17 17 16 16 17 18 18 15 14 16 18 17 19 21 21 22 24 25 26 27
47 48 48 45 42 40 40 44 47 46 45 46 46 45 44 41 39 37 35 37 39 39 36 34 33 31 28 23 18 14 11 9 10 12 13 15 17 18 18 17 17 17 18 19 21 23 23 22 22 21 20 20 20 19 18 17 17 18 18 17 16 17 18 18 17 17 17 16 16 17 19 20 20 17 16 17 18 19 21 21 21 23 25 27 29
46 46 48 48 44 39 37 41 46 47 46 47 47 46 46 44 41 39 36 36 39 40 39 36 35 34 32 27 22 18 15 12 13 14 16 17 18 18 18 18 17 16 17 19 21 22 22 22 22 21 20 20 21 20 19 19 19 19 19 18 17 17 18 18 18 17 17 16 16 17 18 20 22 22 19 17 18 19 21 21 21 21 22 26 29
47 46 46 49 49 44 40 40 44 48 48 48 47 47 47 45 43 41 39 38 38 41 42 38 36 36 35 30 26 23 20 17 16 17 18 19 20 19 19 18 18 16 17 19 20 21 22 22 21 21 20 20 21 21 21 20 20 21 20 20 19 19 19 19 19 19 19 17 16 16 18 19 21 22 21 19 18 18 20 22 23 22 22 23 27
47 47 45 47 51 51 48 45 44 49 52 51 50 50 49 48 46 45 42 40 39 40 42 40 37 38 36 32 30 27 22 20 19 19 19 20 21 20 19 19 18 16 17 18 19 20 21 21 21 21 20 21 21 21 22 22 22 21 20 20 20 20 21 21 21 21 21 20 19 17 16 18 19 21 22 22 20 18 20 23 24 25 24 24 26
Wind_Direction
274 261 244 208 160 173 181 178 174 165 157 141 107 36 15 23 39 46 38 29 27 26 27 27 24 22 22 17 13 11 12 18 26 37 45 48 48 48 47 45 43 40 37 35 34 31 28 25 23 22 22 23 23 21 18 16 14 11 4 354 345 329 297 282 267 241 237 258 303 334 346 357 352 347 348 351 354 356 356 358 358 355 350 346 343
276 262 247 220 185 192 199 204 199 193 189 184 194 329 343 355 24 41 38 30 29 26 27 26 24 22 22 19 17 16 18 24 30 40 46 50 50 49 48 46 44 40 37 34 33 31 27 25 22 22 21 22 23 22 18 14 11 10 5 354 342 328 309 294 283 265 254 257 270 285 304 319 325 328 333 341 345 349 352 353 353 350 345 342 340
273 260 248 233 209 205 211 222 220 216 210 204 208 221 308 330 356 32 34 26 28 28 27 26 25 23 23 19 18 22 23 27 31 39 47 51 53 52 50 47 45 41 36 33 31 29 26 23 21 20 19 20 22 23 20 14 10 6 2 355 342 329 316 303 293 279 269 264 264 272 284 295 304 312 319 327 334 341 343 345 346 344 341 339 338
271 264 254 243 227 217 220 227 232 231 226 219 213 213 243 301 314 3 28 19 22 26 26 26 26 23 23 22 20 23 24 25 28 36 45 52 54 54 52 49 46 42 37 32 28 26 23 21 19 19 17 16 19 22 20 16 11 5 360 354 345 332 319 308 297 286 279 274 274 274 279 288 296 303 309 317 325 331 333 336 339 338 336 335 336
272 265 257 251 242 235 235 234 239 238 235 229 220 215 222 253 266 267 11 11 9 20 22 23 28 26 25 25 23 25 24 20 22 33 44 51 55 55 53 50 46 43 38 31 27 23 20 18 17 17 15 12 14 17 17 14 9 6 1 355 348 338 326 309 295 287 284 281 280 279 282 288 293 298 302 308 315 320 325 329 332 332 330 331 332
274 266 257 254 252 248 248 246 244 241 239 235 229 223 223 239 236 223 201 214 319 20 19 23 29 30 26 26 26 25 26 17 17 26 40 50 54 55 52 49 45 41 38 32 26 21 17 15 15 15 14 11 9 10 10 9 6 4 2 0 355 347 330 306 296 293 288 284 282 283 283 286 290 293 296 302 308 313 318 322 325 325 325 326 327
273 267 262 257 258 258 257 255 251 247 245 240 238 231 226 235 222 206 192 199 208 173 43 33 37 40 32 29 27 24 26 16 12 18 33 46 52 53 52 48 44 40 37 33 27 21 17 14 14 15 15 12 8 4 2 3 2 1 2 5 1 350 330 310 305 298 290 285 282 283 283 285 287 288 290 296 301 306 310 315 318 319 321 322 324
271 266 264 262 261 263 263 260 254 251 249 248 247 245 233 209 207 198 190 195 202 189 173 145 85 67 50 39 31 23 24 16 9 10 23 39 47 51 50 49 44 40 36 33 28 23 20 16 15 15 16 14 8 3 359 360 1 2 3 6 2 347 330 320 311 298 292 287 281 280 282 284 283 283 286 291 295 299 303 308 311 314 316 319 322
267 264 263 265 264 264 265 261 257 251 246 249 261 289 296 220 203 200 193 194 202 199 187 175 152 120 97 67 43 26 22 16 7 1 11 29 41 45 47 48 45 40 35 32 29 24 22 20 19 18 18 15 10 4 359 359 2 5 7 5 354 338 333 327 319 312 304 293 283 278 279 282 282 282 285 289 292 296 299 304 307 309 312 316 320
262 261 262 264 263 262 262 263 260 254 253 261 272 282 279 281 293 244 214 198 205 206 199 186 170 150 132 106 68 38 24 12 1 351 356 17 32 37 39 42 43 39 34 31 29 26 24 22 21 21 21 17 12 6 3 3 4 6 11 7 345 337 341 339 332 324 318 307 295 280 272 280 285 287 289 291 292 295 298 301 305 307 310 314 317
258 257 261 261 262 263 262 265 261 263 270 269 268 267 261 268 290 287 259 219 211 211 209 200 185 169 153 130 109 60 28 12 355 337 342 4 20 27 29 33 37 36 33 30 27 26 25 24 22 22 22 19 14 9 8 8 7 5 9 11 353 346 347 347 338 329 329 324 312 287 270 283 292 294 295 296 297 297 300 303 305 307 310 313 315
256 255 259 261 262 264 264 264 262 271 280 266 254 250 250 262 276 284 272 249 224 214 214 211 201 183 166 147 133 107 40 10 347 327 334 353 5 13 17 20 25 29 30 26 25 24 25 25 23 22 22 19 14 12 13 14 11 5 5 13 7 357 352 348 342 335 335 328 329 323 304 316 314 307 305 303 303 303 304 306 307 308 310 313 316
251 253 256 258 260 261 261 262 260 267 270 255 250 250 252 263 274 289 287 269 243 224 218 215 212 199 179 161 147 132 87 358 333 319 326 343 357 1 2 7 12 19 23 22 21 21 22 23 22 21 20 17 12 12 16 17 14 7 7 12 8 4 358 350 344 340 337 329 342 2 334 337 332 317 314 311 309 309 310 310 309 311 313 315 318
247 249 251 253 255 257 257 258 257 259 258 255 257 256 258 265 276 293 303 283 256 238 227 220 217 213 200 177 161 150 143 303 305 308 318 333 349 352 352 355 360 9 15 16 16 17 18 19 19 18 17 14 10 11 16 20 15 9 11 9 4 2 357 351 347 340 338 330 322 333 329 336 337 323 320 317 315 315 315 316 316 316 318 320 323
245 245 247 249 250 253 255 256 255 256 256 258 258 255 258 262 272 290 303 293 262 247 237 229 222 220 217 200 186 175 184 239 271 294 309 323 338 342 342 345 351 0 6 9 11 13 14 15 16 15 14 11 9 9 13 19 13 9 16 8 2 359 350 348 347 341 337 323 310 321 327 336 337 327 324 322 321 322 322 323 322 322 323 325 326
244 243 244 245 246 248 252 255 256 256 256 263 264 253 253 253 266 286 297 291 268 251 244 238 231 227 228 223 216 210 220 235 254 278 296 312 324 331 332 337 343 352 358 2 5 8 9 10 11 11 11 9 8 8 10 16 8 9 19 7 1 357 348 348 347 346 344 331 323 326 329 336 335 326 325 326 326 327 327 327 326 326 326 327 328
241 240 241 242 242 244 248 253 255 257 258 263 256 240 241 246 260 276 287 283 268 257 247 241 237 233 233 233 236 238 240 244 254 270 286 301 312 321 325 331 337 345 351 355 358 2 4 4 6 6 8 7 7 8 10 13 5 8 18 8 2 356 350 353 353 354 355 347 340 333 333 338 333 327 329 330 330 329 328 329 329 329 329 329 327
237 238 238 239 239 240 244 250 254 255 257 257 243 231 235 246 257 262 272 272 262 259 252 245 240 237 235 235 244 249 251 254 259 268 279 292 303 313 319 326 331 339 345 349 352 355 357 359 1 1 4 5 6 8 10 10 5 8 14 11 6 359 357 0 358 357 355 348 342 337 337 339 332 329 331 332 331 329 329 331 331 331 330 328 326
237 239 237 237 237 238 240 246 251 252 253 254 246 239 240 248 256 257 262 263 256 256 255 250 244 239 239 239 245 252 258 261 263 269 277 288 298 309 317 323 328 335 341 344 346 348 350 352 355 356 359 2 3 7 10 8 6 7 10 14 10 5 5 2 0 356 349 346 341 336 336 336 332 329 331 331 331 330 331 332 331 331 329 327 325
241 239 235 235 236 237 239 242 247 249 250 253 249 244 245 250 255 255 257 261 256 254 254 254 249 243 242 243 246 253 260 265 268 273 278 287 297 307 316 322 327 333 338 340 341 342 344 347 349 351 355 358 0 5 10 7 4 5 8 14 14 13 10 2 0 355 346 344 337 332 334 336 334 332 331 331 331 331 331 332 331 329 328 326 323
243 237 233 232 234 236 237 240 245 247 248 251 251 246 246 249 251 250 255 261 258 254 254 254 253 249 247 246 248 254 262 267 271 275 281 289 299 310 318 324 329 332 335 337 337 336 338 342 345 347 349 352 356 3 9 5 360 2 5 11 18 17 9 0 356 349 343 341 334 332 335 336 335 335 332 331 332 332 332 331 330 328 326 324 323
241 236 231 229 232 235 235 239 243 246 248 249 249 245 244 246 247 247 251 256 254 253 254 254 254 253 251 250 250 255 262 268 272 276 283 291 301 312 320 325 330 332 333 334 332 333 333 337 340 343 345 347 352 2 9 6 359 358 1 6 15 14 4 355 350 343 340 338 335 335 337 337 338 337 334 333 333 333 332 330 328 326 324 323 322
239 235 231 229 231 234 236 238 242 246 248 246 243 242 242 241 242 242 247 252 250 250 252 253 254 252 253 254 253 254 260 267 271 275 281 291 303 313 321 326 330 331 331 331 329 329 330 333 337 339 340 342 347 1 10 7 360 356 356 359 3 5 358 348 345 344 343 340 337 337 338 341 341 339 337 336 335 333 331 328 326 324 323 322 320
230 228 226 228 229 232 235 237 241 244 244 240 236 236 238 235 233 237 244 251 251 251 252 253 253 253 253 254 253 253 256 263 267 272 279 288 299 311 318 324 328 330 330 328 327 325 328 331 333 336 337 338 343 359 12 3 356 353 352 355 353 354 352 342 344 346 344 341 341 343 342 341 342 341 340 337 334 331 329 327 326 324 322 321 321
219 216 216 220 224 228 232 233 235 236 234 230 226 225 228 229 230 234 242 250 253 253 251 252 253 252 251 250 249 250 253 258 263 267 275 285 295 305 313 320 324 327 328 326 326 324 326 329 331 333 334 337 339 354 12 357 349 356 353 354 347 342 346 344 347 348 343 344 347 345 340 340 341 341 339 335 331 330 329 328 326 324 323 323 322
216 208 206 209 217 221 223 224 224 223 219 216 215 215 221 227 230 235 240 245 251 252 250 250 250 248 247 246 247 248 251 254 258 263 272 283 293 302 308 317 322 325 326 325 325 324 325 328 329 331 332 336 337 352 10 350 345 359 354 352 347 342 349 349 347 345 345 346 345 341 338 339 339 339 337 333 331 331 330 328 326 325 325 325 325
215 203 202 204 209 213 213 214 214 210 207 208 209 212 221 229 235 239 240 242 243 244 242 240 240 241 242 244 246 248 251 253 257 264 274 287 296 304 309 316 323 325 326 326 326 325 325 327 329 330 331 332 335 351 2 345 346 353 348 350 350 349 349 345 342 342 344 342 338 337 337 338 338 339 336 332 331 331 330 328 327 326 326 326 327
211 205 208 205 202 205 207 208 207 204 205 207 208 214 223 232 240 242 242 239 232 225 224 226 227 229 234 239 246 250 253 257 262 272 281 294 301 306 312 319 326 328 326 326 326 327 326 328 330 330 330 328 331 345 348 344 347 343 340 345 350 350 337 333 338 341 343 338 336 338 338 338 338 337 335 333 333 332 331 329 328 329 328 328 329
211 209 208 204 200 198 199 202 203 203 206 208 211 215 222 233 240 243 240 231 221 215 217 220 219 220 225 230 241 253 259 265 271 281 290 299 304 310 318 324 330 331 328 327 327 329 329 330 331 330 329 325 328 340 344 343 342 338 342 342 345 347 335 330 333 338 342 337 336 338 338 338 336 335 335 334 335 333 332 331 331 331 331 330 329
222 216 209 204 201 196 194 198 202 203 207 210 213 215 221 229 236 239 232 221 220 220 219 216 214 214 218 224 235 253 264 275 280 287 297 304 309 316 326 331 332 333 332 330 329 331 332 332 332 330 327 325 331 338 336 332 332 335 341 340 342 344 337 331 329 334 339 335 336 338 337 336 334 335 337 335 335 335 335 334 333 333 333 331 329
243 229 217 210 204 199 194 194 200 204 207 210 213 215 219 224 231 234 224 217 220 221 217 211 210 210 212 223 233 249 266 278 287 293 301 309 316 324 333 337 337 337 336 334 333 333 334 335 333 330 328 330 332 330 327 327 330 332 335 337 340 338 333 331 328 331 335 333 334 336 335 334 335 337 336 335 336 337 336 334 334 334 333 330 328
245 234 229 220 210 204 196 193 198 203 207 210 212 213 215 220 225 227 220 217 219 217 215 210 210 209 209 221 233 248 267 278 289 297 306 316 324 332 341 346 345 342 339 336 336 335 337 338 332 328 329 331 327 325 327 329 329 331 333 337 338 334 331 332 330 328 331 334 333 333 334 334 335 336 334 334 337 337 335 335 334 333 331 329 328
241 236 237 229 219 210 200 194 197 203 207 209 211 211 211 215 218 220 218 215 214 213 212 212 214 213 213 222 236 250 265 277 291 297 306 321 333 339 343 347 346 342 338 335 335 338 340 338 331 328 329 328 325 325 328 328 329 330 332 333 332 331 329 330 330 324 326 332 331 329 330 333 334 333 333 335 337 335 334 334 332 331 330 330 330
238 230 233 225 219 214 205 198 197 202 208 211 212 209 208 210 211 213 213 211 209 208 210 212 214 216 218 225 236 249 261 273 286 296 305 317 329 335 338 340 339 335 333 332 336 340 339 334 331 331 332 330 328 326 325 326 329 329 328 328 326 326 327 329 329 322 321 326 328 327 327 331 332 330 332 334 334 334 333 333 331 330 332 331 332
235 229 234 224 219 213 204 199 198 202 209 215 215 210 209 207 206 208 208 207 204 204 208 211 214 217 219 225 234 246 258 271 282 292 300 309 318 326 331 334 332 330 329 332 338 341 336 333 333 334 333 329 327 326 324 324 325 326 326 326 325 327 327 327 327 321 320 323 327 327 325 329 330 327 329 332 335 336 334 331 330 332 333 333 333
246 245 246 241 225 209 201 199 198 203 210 217 218 214 212 208 205 205 204 204 202 202 208 213 220 222 223 227 233 244 253 263 276 285 294 304 315 324 328 329 327 327 329 334 338 338 334 334 334 332 331 326 323 323 323 323 324 325 325 326 327 328 327 326 323 319 320 323 326 326 326 330 330 326 331 338 339 336 330 329 330 332 333 333 333
257 253 248 246 223 205 207 208 200 204 211 217 221 217 214 210 206 204 202 202 202 202 205 213 225 227 228 231 234 242 249 258 266 275 291 305 314 324 326 325 326 326 330 335 337 335 334 335 333 331 331 326 322 322 322 324 324 324 324 324 326 327 325 325 323 319 320 322 325 327 327 331 332 329 335 342 336 328 325 327 331 333 333 333 333
257 256 248 239 222 212 218 213 202 206 212 217 222 219 215 211 208 206 204 202 203 205 206 213 223 228 231 234 239 244 249 259 267 274 289 303 312 321 324 324 325 327 331 335 335 335 334 333 333 331 331 328 325 324 323 324 324 324 325 324 325 326 325 325 323 319 319 323 325 328 325 327 331 326 326 330 326 322 323 327 332 333 333 332 332
251 253 248 238 234 232 226 215 207 210 214 218 222 221 216 213 210 209 208 206 205 207 208 214 220 226 232 236 244 248 251 258 268 277 286 299 308 317 320 322 324 326 332 335 333 334 333 333 334 333 331 329 327 325 323 323 323 324 323 322 323 325 324 324 321 316 317 323 325 326 324 320 321 315 314 319 322 323 325 327 331 333 332 331 332
246 247 249 244 245 243 232 227 231 225 222 222 223 223 218 214 212 212 214 211 209 209 210 215 218 223 231 235 243 251 255 258 266 275 282 294 304 311 316 320 324 327 331 334 333 332 332 333 336 334 330 327 326 325 321 320 320 321 320 319 321 323 322 321 319 314 314 323 323 321 321 315 312 311 314 319 322 326 328 327 328 330 330 330 331
245 242 246 246 246 243 234 236 248 245 233 225 226 225 221 218 215 214 218 217 213 211 213 217 216 217 226 231 236 248 256 258 263 272 280 290 299 306 312 318 324 327 330 334 334 332 331 333 335 334 330 327 326 325 322 319 318 318 317 318 321 322 319 319 320 317 317 324 323 318 319 319 320 323 321 319 320 323 326 327 326 327 329 330 330
247 243 243 243 240 240 237 240 249 250 239 230 228 227 225 224 221 218 221 221 218 216 217 219 217 214 219 226 229 238 253 258 259 267 277 285 293 299 307 315 321 325 328 332 334 332 332 334 335 334 331 328 326 326 325 322 318 316 315 318 320 318 315 317 321 321 320 321 322 320 321 322 321 324 324 320 318 319 320 323 325 325 327 330 330
245 243 241 240 238 239 240 243 248 248 243 236 231 228 227 226 226 223 224 225 223 222 224 225 224 216 211 222 229 228 242 255 256 259 271 279 286 294 302 310 317 321 323 327 333 334 332 334 335 334 332 329 327 326 325 321 317 314 314 316 316 313 313 315 319 321 320 318 319 319 321 321 318 318 322 322 319 317 315 317 321 323 325 328 329
240 240 238 237 236 237 240 244 245 245 244 241 236 232 229 227 228 227 226 227 227 227 229 231 231 220 208 216 228 227 230 246 257 259 266 276 282 289 297 305 311 316 318 321 328 333 332 331 333 332 331 331 330 326 320 317 316 314 313 315 315 312 312 314 316 319 318 316 316 316 316 317 313 314 320 324 320 315 313 313 317 321 323 326 327
237 240 238 238 238 237 239 243 243 243 244 244 242 240 237 233 232 231 230 230 231 231 230 231 232 225 213 212 221 227 227 238 256 264 270 275 279 285 292 299 305 312 316 317 323 330 331 329 330 331 330 331 330 324 318 315 315 316 315 314 314 312 312 314 315 316 317 316 316 314 312 313 313 314 318 322 320 316 313 313 317 321 323 325 324
240 242 239 239 241 240 239 240 242 243 244 246 245 245 245 241 237 236 235 233 233 232 229 228 229 226 218 213 216 223 226 236 255 268 274 275 278 282 288 295 302 310 316 317 319 326 329 327 328 330 330 329 329 324 318 315 315 316 316 314 314 313 311 312 313 314 317 317 314 309 306 309 313 313 313 315 315 313 312 315 318 322 324 324 323
242 243 241 240 242 244 241 238 240 242 243 245 244 245 250 248 243 242 242 239 234 231 230 228 229 230 227 220 215 219 228 244 262 275 280 280 280 281 286 293 300 308 315 317 318 322 326 325 325 327 328 327 326 326 320 315 314 315 316 315 314 312 310 310 311 313 315 314 311 307 306 307 309 309 308 308 309 308 309 315 319 321 323 323 323
242 242 243 242 242 245 242 237 237 239 240 241 242 245 249 249 246 244 246 247 240 233 232 231 231 236 236 231 224 225 238 254 272 283 287 287 283 281 284 291 296 304 312 316 317 320 323 323 322 323 326 325 324 324 321 316 314 314 316 315 313 311 308 308 309 309 309 309 309 308 307 309 311 311 308 305 307 308 309 314 317 319 323 323 324
242 241 241 242 241 240 238 235 235 237 238 239 242 245 246 247 246 243 246 252 247 238 234 233 233 236 239 235 230 235 246 260 277 287 291 292 286 280 281 287 293 298 308 316 317 319 323 323 320 321 324 324 322 322 321 317 313 313 314 313 312 309 308 308 308 307 306 306 307 307 307 308 310 311 311 307 306 308 309 312 315 318 322 324 324
241 240 239 239 239 236 236 237 237 237 236 237 239 241 242 244 244 243 248 254 252 245 240 236 235 236 238 236 234 239 247 260 276 285 291 293 288 280 277 283 289 293 305 316 317 319 324 325 321 319 322 323 322 321 321 319 315 312 311 311 311 310 308 308 308 306 305 304 304 304 305 306 307 309 310 306 305 308 311 313 315 318 322 324 324
241 241 239 238 238 238 239 241 240 236 234 235 237 239 241 242 243 244 248 254 255 250 242 238 238 238 237 236 238 241 247 260 272 281 288 290 286 278 273 280 285 289 303 314 317 319 324 326 323 318 319 321 321 321 322 321 318 313 311 311 311 310 308 307 307 307 306 305 304 302 303 304 306 307 306 306 309 313 314 314 315 319 322 324 324
Height
5897 5897 5898 5898 5899 5900 5900 5901 5901 5901 5901 5902 5902 5902 5902 5902 5901 5901 5901 5900 5900 5899 5898 5897 5896 5896 5895 5894 5894 5893 5893 5892 5891 5890 5890 5889 5888 5888 5887 5886 5886 5886 5885 5885 5885 5884 5884 5883 5883 5883 5883 5883 5883 5883 5882 5881 5881 5880 5880 5880 5880 5880 5880 5880 5880 5880 5879 5879 5879 5878 5878 5878 5878 5878 5878 5878 5877 5877 5877 5876 5876 5875 5875 5874 5873
5896 5896 5897 5898 5898 5899 5900 5900 5901 5901 5901 5902 5902 5902 5902 5902 5902 5901 5901 5900 5900 5899 5899 5898 5897 5896 5895 5895 5894 5894 5893 5892 5891 5891 5890 5889 5888 5888 5887 5886 5886 5886 5885 5885 5884 5884 5884 5883 5883 5883 5883 5883 5883 5882 5882 5881 5880 5880 5880 5880 5879 5879 5879 5879 5879 5879 5879 5879 5878 5878 5878 5878 5878 5878 5877 5877 5877 5877 5876 5876 5875 5875 5874 5874 5873
5895 5896 5896 5897 5898 5898 5899 5900 5900 5901 5901 5901 5902 5902 5902 5902 5902 5901 5901 5900 5900 5899 5899 5898 5898 5897 5896 5895 5895 5894 5893 5892 5891 5891 5890 5889 5888 5888 5887 5886 5886 5886 5885 5885 5885 5884 5884 5883 5883 5883 5883 5883 5883 5882 5882 5881 5880 5880 5879 5879 5879 5879 5879 5879 5879 5879 5879 5879 5878 5878 5878 5877 5877 5877 5877 5877 5877 5876 5876 5875 5875 5875 5874 5874 5873
5894 5895 5896 5896 5897 5898 5899 5899 5900 5900 5901 5901 5901 5901 5902 5902 5902 5901 5901 5901 5900 5899 5899 5899 5898 5898 5897 5896 5895 5894 5894 5893 5892 5891 5890 5889 5889 5888 5887 5886 5886 5886 5886 5885 5885 5884 5884 5884 5883 5883 5883 5882 5882 5882 5881 5881 5880 5880 5879 5879 5879 5879 5879 5879 5879 5878 5878 5878 5878 5878 5877 5877 5877 5877 5877 5876 5876 5876 5875 5875 5875 5874 5874 5873 5873
5894 5895 5895 5896 5897 5897 5898 5899 5899 5900 5900 5900 5901 5901 5901 5901 5901 5901 5901 5900 5900 5900 5899 5899 5898 5898 5897 5896 5896 5895 5894 5893 5892 5891 5890 5890 5889 5888 5887 5887 5886 5886 5886 5885 5885 5885 5884 5884 5883 5883 5883 5882 5882 5881 5881 5880 5880 5880 5879 5879 5879 5879 5879 5879 5878 5878 5878 5878 5878 5877 5877 5877 5877 5876 5876 5876 5875 5875 5875 5874 5874 5874 5873 5873 5872
5894 5894 5895 5895 5896 5897 5897 5898 5899 5899 5899 5900 5900 5900 5900 5901 5901 5901 5900 5900 5900 5900 5899 5899 5899 5898 5898 5897 5896 5895 5894 5893 5892 5891 5890 5890 5889 5888 5888 5887 5887 5886 5886 5886 5885 5885 5884 5884 5883 5883 5883 5882 5881 5881 5881 5880 5880 5879 5880 5880 5880 5880 5879 5878 5878 5878 5878 5878 5878 5877 5877 5877 5876 5876 5876 5875 5875 5874 5874 5874 5873 5873 5873 5872 5871
5893 5894 5894 5895 5895 5896 5897 5897 5898 5898 5899 5899 5899 5899 5900 5900 5900 5900 5900 5900 5900 5900 5899 5899 5899 5898 5898 5897 5896 5895 5894 5894 5893 5892 5891 5890 5889 5888 5888 5887 5887 5886 5886 5886 5885 5885 5884 5884 5883 5883 5882 5882 5881 5880 5880 5880 5879 5879 5879 5880 5880 5879 5878 5878 5878 5878 5877 5877 5877 5877 5877 5876 5876 5876 5875 5875 5874 5874 5873 5873 5873 5872 5872 5871 5870
5892 5893 5893 5894 5895 5896 5896 5897 5897 5898 5899 5899 5899 5899 5899 5899 5900 5900 5900 5900 5900 5900 5899 5899 5899 5898 5898 5897 5897 5896 5895 5894 5893 5892 5891 5890 5889 5889 5888 5888 5887 5887 5886 5886 5885 5885 5884 5884 5883 5882 5882 5881 5881 5880 5879 5879 5879 5879 5879 5879 5879 5878 5877 5877 5877 5877 5877 5877 5877 5877 5877 5876 5876 5876 5875 5875 5874 5874 5873 5872 5872 5872 5871 5870 5870
5891 5892 5892 5893 5894 5895 5895 5896 5897 5898 5898 5898 5899 5899 5899 5899 5899 5900 5900 5900 5900 5900 5899 5899 5898 5898 5898 5897 5897 5896 5895 5894 5893 5892 5891 5890 5889 5888 5888 5888 5887 5887 5886 5886 5885 5885 5884 5883 5883 5882 5882 5881 5880 5880 5879 5879 5879 5879 5879 5879 5877 5876 5877 5877 5876 5877 5877 5877 5876 5876 5876 5876 5876 5876 5875 5875 5874 5873 5873 5872 5872 5871 5870 5870 5869
5891 5891 5891 5892 5893 5894 5895 5895 5896 5897 5897 5897 5898 5898 5899 5899 5899 5899 5899 5899 5899 5899 5899 5899 5898 5898 5898 5897 5897 5896 5895 5894 5893 5892 5891 5890 5888 5888 5888 5888 5887 5887 5886 5886 5885 5885 5884 5883 5883 5882 5881 5881 5880 5880 5879 5879 5878 5878 5878 5878 5876 5876 5877 5877 5877 5877 5877 5877 5876 5875 5875 5875 5876 5875 5875 5874 5873 5873 5872 5872 5871 5870 5870 5869 5869
5890 5890 5891 5892 5892 5893 5894 5894 5895 5896 5896 5896 5897 5898 5898 5898 5898 5898 5899 5899 5899 5899 5899 5899 5898 5898 5897 5897 5896 5896 5895 5894 5893 5892 5891 5889 5888 5888 5887 5887 5887 5887 5886 5886 5885 5885 5884 5883 5882 5882 5881 5881 5880 5879 5879 5879 5878 5878 5877 5877 5876 5875 5876 5877 5876 5876 5876 5875 5875 5875 5875 5875 5875 5875 5874 5873 5873 5872 5872 5871 5870 5870 5869 5869 5868
5889 5889 5890 5891 5892 5892 5893 5893 5894 5895 5895 5895 5896 5897 5897 5897 5898 5898 5898 5898 5899 5899 5899 5899 5898 5898 5897 5896 5896 5896 5895 5894 5893 5892 5891 5889 5888 5887 5887 5887 5887 5887 5886 5885 5885 5884 5884 5883 5882 5882 5881 5880 5880 5879 5879 5878 5878 5877 5876 5877 5876 5875 5875 5875 5875 5875 5875 5874 5874 5874 5875 5874 5874 5874 5873 5872 5872 5871 5871 5870 5870 5869 5868 5868 5867
5888 5889 5890 5890 5891 5891 5891 5892 5893 5894 5895 5894 5895 5896 5896 5896 5897 5897 5897 5898 5898 5898 5898 5898 5898 5898 5897 5896 5895 5895 5895 5894 5893 5892 5891 5889 5888 5887 5887 5887 5887 5886 5886 5885 5885 5884 5883 5882 5882 5881 5881 5880 5879 5879 5878 5878 5877 5876 5876 5876 5876 5875 5875 5874 5874 5874 5873 5873 5873 5874 5874 5873 5873 5873 5872 5871 5871 5870 5870 5869 5869 5868 5867 5867 5866
5887 5888 5889 5889 5890 5890 5890 5891 5892 5893 5894 5894 5894 5895 5895 5895 5896 5896 5896 5897 5897 5898 5898 5898 5898 5898 5897 5896 5895 5894 5894 5894 5893 5892 5890 5889 5888 5887 5886 5886 5886 5886 5885 5885 5884 5884 5883 5882 5881 5881 5880 5879 5879 5878 5878 5877 5876 5876 5876 5875 5875 5875 5874 5874 5873 5873 5873 5872 5872 5873 5873 5872 5871 5871 5871 5871 5870 5869 5869 5868 5868 5867 5866 5866 5865
5886 5887 5888 5888 5888 5889 5889 5890 5890 5891 5892 5893 5893 5894 5894 5894 5894 5895 5895 5896 5897 5897 5897 5897 5897 5897 5897 5896 5895 5894 5893 5893 5893 5892 5890 5889 5888 5887 5886 5886 5886 5885 5885 5884 5884 5883 5882 5882 5881 5880 5880 5879 5878 5878 5877 5877 5876 5875 5875 5875 5874 5874 5873 5873 5873 5872 5872 5872 5872 5872 5872 5871 5871 5870 5870 5870 5868 5868 5867 5867 5866 5866 5865 5864 5864
5885 5886 5886 5887 5887 5888 5888 5888 5889 5890 5891 5892 5892 5893 5894 5894 5894 5894 5894 5895 5896 5896 5897 5897 5896 5896 5896 5895 5895 5894 5893 5893 5892 5891 5890 5889 5888 5887 5886 5886 5885 5885 5884 5884 5883 5883 5882 5881 5881 5880 5879 5878 5878 5877 5877 5876 5875 5874 5875 5874 5874 5873 5873 5872 5872 5872 5872 5872 5871 5871 5871 5870 5870 5869 5869 5868 5867 5866 5866 5866 5865 5865 5864 5863 5862
5883 5884 5885 5885 5886 5886 5887 5887 5888 5889 5890 5891 5891 5892 5893 5893 5893 5893 5893 5894 5895 5896 5896 5896 5896 5896 5896 5895 5895 5894 5893 5893 5892 5891 5889 5888 5887 5887 5886 5886 5885 5884 5884 5883 5883 5882 5881 5881 5880 5879 5879 5878 5877 5877 5876 5875 5874 5873 5874 5873 5873 5873 5872 5872 5871 5871 5871 5871 5870 5870 5870 5869 5868 5868 5868 5867 5866 5865 5865 5865 5864 5864 5863 5862 5861
5881 5882 5883 5884 5884 5885 5885 5886 5886 5887 5888 5889 5890 5891 5892 5892 5892 5892 5893 5894 5895 5895 5896 5896 5896 5895 5895 5895 5894 5894 5894 5893 5892 5891 5889 5888 5887 5887 5886 5885 5885 5884 5883 5883 5882 5882 5881 5880 5879 5879 5878 5877 5877 5876 5875 5874 5873 5873 5873 5873 5872 5872 5871 5871 5871 5870 5870 5870 5870 5869 5869 5868 5867 5867 5866 5866 5865 5864 5864 5864 5863 5863 5862 5861 5860
5879 5880 5881 5881 5882 5883 5884 5884 5885 5886 5887 5888 5889 5890 5890 5891 5892 5892 5892 5893 5894 5894 5895 5895 5895 5895 5895 5894 5894 5894 5894 5893 5892 5891 5889 5888 5887 5886 5886 5885 5884 5884 5883 5882 5882 5881 5880 5880 5879 5878 5877 5877 5876 5875 5875 5874 5873 5872 5872 5872 5871 5871 5871 5871 5871 5871 5870 5869 5869 5868 5868 5867 5867 5866 5865 5865 5864 5863 5863 5863 5862 5862 5861 5860 5859
5877 5878 5878 5879 5880 5881 5882 5883 5884 5885 5885 5886 5887 5888 5888 5889 5890 5891 5891 5892 5892 5893 5894 5894 5895 5894 5894 5894 5894 5894 5894 5893 5892 5891 5890 5888 5887 5886 5886 5885 5884 5883 5882 5882 5881 5881 5880 5879 5878 5878 5877 5876 5875 5875 5874 5873 5872 5871 5871 5871 5871 5871 5870 5870 5870 5870 5869 5869 5868 5868 5867 5867 5866 5865 5865 5864 5864 5863 5862 5862 5861 5861 5860 5859 5858
5874 5875 5876 5877 5878 5879 5880 5881 5882 5883 5884 5884 5885 5886 5886 5887 5888 5889 5890 5890 5891 5891 5892 5893 5893 5893 5893 5893 5893 5893 5893 5893 5892 5891 5890 5888 5887 5886 5885 5885 5884 5883 5882 5881 5880 5880 5879 5879 5878 5877 5876 5876 5875 5874 5873 5872 5872 5871 5871 5871 5871 5870 5870 5870 5869 5869 5869 5868 5868 5867 5866 5866 5865 5865 5864 5864 5863 5862 5862 5861 5860 5860 5859 5858 5857
5872 5873 5874 5875 5875 5877 5878 5879 5880 5881 5882 5882 5883 5884 5885 5885 5886 5888 5889 5889 5889 5890 5891 5891 5892 5892 5892 5892 5893 5893 5892 5892 5892 5891 5890 5888 5887 5886 5885 5885 5884 5883 5882 5881 5880 5879 5879 5878 5878 5877 5876 5875 5874 5874 5873 5872 5871 5871 5870 5870 5870 5870 5869 5869 5868 5868 5868 5867 5867 5866 5865 5865 5864 5864 5863 5862 5862 5861 5861 5860 5860 5859 5858 5857 5856
5869 5871 5872 5872 5874 5875 5877 5877 5878 5879 5880 5881 5882 5882 5883 5883 5885 5886 5887 5887 5888 5888 5889 5890 5890 5891 5891 5891 5891 5891 5891 5891 5891 5890 5889 5888 5887 5886 5885 5884 5884 5883 5881 5880 5879 5878 5878 5877 5877 5876 5875 5874 5874 5874 5873 5872 5871 5870 5869 5869 5870 5870 5869 5868 5868 5867 5867 5866 5866 5865 5864 5864 5863 5863 5862 5861 5860 5860 5860 5859 5859 5858 5857 5856 5855
5865 5867 5869 5870 5872 5873 5874 5876 5877 5878 5878 5879 5880 5881 5881 5882 5883 5884 5885 5886 5886 5887 5887 5888 5888 5889 5889 5890 5890 5890 5890 5890 5890 5889 5889 5888 5887 5886 5885 5884 5883 5882 5881 5880 5879 5878 5877 5877 5876 5876 5875 5874 5874 5874 5873 5872 5870 5869 5869 5869 5868 5869 5868 5867 5867 5866 5866 5865 5864 5864 5863 5863 5862 5862 5861 5860 5859 5859 5858 5858 5857 5856 5855 5854 5853
5859 5861 5863 5866 5869 5871 5872 5874 5875 5876 5877 5878 5878 5879 5880 5881 5881 5882 5883 5884 5885 5886 5886 5886 5887 5887 5888 5888 5889 5889 5889 5889 5889 5888 5888 5887 5886 5885 5884 5883 5882 5882 5880 5879 5878 5877 5877 5876 5876 5875 5875 5874 5873 5873 5873 5871 5870 5869 5869 5868 5867 5868 5867 5866 5866 5865 5865 5864 5863 5862 5862 5862 5861 5860 5859 5859 5858 5858 5857 5857 5856 5855 5854 5853 5852
5855 5856 5858 5862 5865 5868 5870 5872 5873 5875 5875 5876 5877 5878 5879 5879 5880 5881 5882 5883 5884 5884 5885 5885 5885 5886 5887 5887 5887 5888 5888 5888 5888 5887 5887 5886 5885 5884 5883 5882 5882 5881 5880 5879 5878 5877 5876 5876 5875 5875 5874 5873 5872 5873 5872 5870 5870 5869 5868 5867 5867 5867 5866 5865 5864 5864 5864 5863 5862 5861 5861 5860 5860 5859 5858 5857 5857 5856 5856 5856 5855 5854 5853 5851 5850
5857 5855 5855 5859 5862 5865 5868 5870 5871 5873 5874 5875 5876 5877 5878 5878 5879 5880 5881 5882 5883 5883 5883 5884 5884 5885 5885 5886 5886 5887 5887 5887 5887 5886 5886 5885 5884 5884 5882 5882 5881 5880 5879 5878 5877 5876 5875 5875 5875 5874 5873 5873 5872 5872 5871 5870 5869 5869 5868 5867 5867 5866 5865 5864 5864 5863 5863 5862 5861 5861 5860 5859 5858 5857 5857 5856 5856 5855 5855 5854 5853 5852 5851 5850 5849
5855 5855 5855 5856 5858 5861 5865 5867 5869 5871 5872 5873 5875 5876 5877 5877 5878 5879 5880 5881 5881 5882 5882 5882 5883 5884 5884 5885 5885 5886 5886 5886 5886 5885 5885 5884 5884 5883 5882 5881 5880 5879 5878 5877 5876 5876 5874 5874 5874 5873 5872 5872 5871 5872 5871 5870 5869 5868 5868 5867 5866 5865 5865 5864 5863 5862 5862 5861 5860 5859 5858 5857 5856 5856 5855 5855 5855 5854 5854 5853 5852 5851 5850 5849 5847
5849 5850 5852 5854 5854 5856 5860 5864 5867 5869 5870 5871 5873 5874 5876 5877 5877 5878 5879 5880 5880 5881 5881 5881 5882 5883 5883 5884 5884 5884 5885 5885 5885 5884 5884 5883 5883 5882 5881 5880 5879 5878 5877 5876 5876 5875 5874 5873 5873 5872 5872 5871 5871 5871 5870 5869 5869 5868 5867 5866 5865 5864 5864 5862 5862 5861 5861 5860 5859 5858 5857 5856 5855 5855 5854 5854 5853 5853 5852 5851 5850 5849 5848 5847 5846
5847 5846 5848 5851 5853 5854 5856 5860 5864 5867 5868 5870 5871 5873 5875 5876 5876 5877 5878 5879 5879 5880 5880 5881 5881 5882 5882 5882 5883 5883 5883 5884 5884 5883 5883 5883 5882 5881 5880 5879 5878 5877 5877 5876 5875 5874 5873 5873 5872 5871 5870 5870 5870 5870 5869 5869 5869 5867 5866 5865 5864 5863 5862 5861 5860 5860 5860 5858 5857 5856 5855 5855 5854 5853 5853 5852 5852 5851 5851 5850 5849 5848 5847 5845 5844
5846 5846 5846 5848 5852 5854 5854 5856 5861 5864 5866 5868 5869 5872 5873 5875 5875 5876 5877 5877 5878 5879 5879 5879 5880 5880 5881 5881 5881 5882 5882 5882 5882 5882 5882 5882 5881 5880 5879 5878 5877 5877 5876 5875 5874 5873 5873 5872 5871 5870 5869 5869 5869 5869 5869 5868 5867 5866 5864 5864 5863 5862 5862 5861 5859 5859 5858 5857 5855 5855 5854 5854 5853 5852 5851 5851 5850 5850 5849 5848 5847 5846 5845 5844 5843
5843 5845 5847 5848 5851 5854 5854 5853 5857 5860 5863 5865 5867 5870 5872 5873 5874 5875 5876 5876 5877 5878 5878 5878 5879 5879 5879 5879 5880 5880 5881 5881 5881 5881 5881 5880 5880 5879 5878 5877 5876 5876 5875 5875 5874 5873 5872 5872 5871 5869 5869 5868 5868 5867 5867 5866 5865 5864 5863 5862 5862 5861 5861 5860 5858 5857 5857 5856 5854 5853 5853 5852 5851 5851 5850 5850 5849 5848 5848 5847 5846 5845 5844 5843 5842
5840 5842 5845 5847 5849 5852 5853 5852 5853 5857 5860 5863 5865 5867 5869 5871 5873 5874 5874 5875 5876 5876 5877 5877 5877 5877 5878 5878 5878 5879 5879 5880 5880 5880 5880 5879 5878 5878 5877 5877 5876 5876 5875 5875 5874 5873 5872 5871 5869 5868 5868 5867 5866 5865 5865 5864 5863 5863 5862 5862 5860 5859 5859 5858 5857 5855 5855 5855 5853 5852 5852 5851 5850 5849 5849 5848 5848 5847 5847 5846 5844 5844 5843 5842 5840
5838 5839 5841 5843 5845 5848 5852 5851 5849 5853 5857 5860 5863 5865 5867 5869 5870 5872 5873 5874 5874 5875 5876 5876 5876 5876 5876 5877 5877 5878 5878 5878 5879 5879 5879 5878 5878 5877 5876 5876 5876 5876 5875 5874 5874 5872 5870 5869 5868 5867 5867 5866 5865 5864 5863 5863 5862 5861 5860 5860 5860 5859 5858 5857 5856 5855 5853 5853 5852 5851 5850 5850 5849 5848 5848 5847 5847 5846 5845 5844 5843 5842 5841 5840 5839
5835 5837 5838 5840 5841 5843 5849 5849 5847 5850 5855 5858 5861 5864 5866 5867 5868 5870 5871 5872 5873 5874 5874 5875 5875 5875 5875 5875 5876 5876 5877 5877 5877 5877 5877 5877 5877 5876 5875 5875 5875 5875 5874 5874 5872 5870 5868 5867 5866 5865 5865 5864 5863 5863 5862 5861 5860 5859 5859 5858 5858 5857 5857 5856 5856 5854 5852 5851 5851 5850 5849 5848 5848 5847 5847 5846 5845 5844 5843 5843 5842 5841 5839 5838 5837
5832 5834 5837 5839 5840 5842 5847 5847 5845 5848 5853 5856 5859 5862 5864 5865 5866 5868 5869 5870 5871 5872 5873 5873 5874 5874 5874 5874 5874 5875 5875 5875 5876 5876 5876 5875 5875 5874 5874 5873 5873 5873 5873 5872 5871 5868 5866 5866 5865 5864 5863 5863 5861 5860 5860 5860 5859 5858 5857 5857 5856 5856 5855 5855 5854 5853 5852 5851 5849 5848 5846 5846 5845 5845 5845 5844 5842 5842 5842 5841 5840 5839 5838 5836 5835
5830 5831 5835 5838 5840 5842 5846 5845 5843 5847 5851 5854 5858 5860 5862 5864 5865 5866 5867 5868 5869 5870 5871 5872 5872 5872 5872 5872 5873 5873 5874 5874 5874 5875 5874 5874 5873 5873 5872 5872 5872 5872 5871 5871 5869 5866 5865 5865 5864 5862 5861 5861 5860 5859 5858 5858 5857 5856 5856 5856 5855 5854 5854 5853 5853 5851 5851 5850 5849 5847 5845 5844 5843 5842 5842 5842 5841 5841 5841 5840 5839 5837 5836 5834 5832
5828 5828 5832 5837 5839 5841 5844 5843 5842 5845 5849 5852 5856 5858 5860 5862 5863 5864 5865 5866 5867 5868 5869 5870 5871 5871 5871 5871 5871 5872 5872 5873 5873 5873 5873 5872 5872 5872 5871 5871 5871 5870 5870 5870 5867 5864 5863 5863 5862 5860 5859 5859 5858 5857 5857 5856 5855 5855 5854 5854 5853 5853 5852 5851 5850 5849 5849 5848 5847 5846 5845 5844 5843 5841 5840 5841 5841 5840 5839 5838 5837 5835 5834 5832 5830
5826 5826 5828 5833 5836 5838 5841 5841 5841 5843 5847 5850 5853 5856 5858 5860 5861 5863 5863 5864 5865 5867 5868 5868 5869 5869 5869 5869 5869 5870 5871 5871 5872 5872 5871 5871 5870 5870 5870 5870 5869 5868 5868 5868 5866 5864 5862 5861 5861 5859 5858 5857 5856 5856 5855 5855 5854 5853 5852 5852 5851 5851 5850 5850 5849 5848 5847 5847 5845 5845 5844 5844 5843 5842 5839 5839 5839 5839 5837 5836 5835 5834 5833 5831 5829
5823 5824 5825 5829 5831 5835 5837 5838 5840 5842 5844 5848 5851 5853 5856 5857 5859 5861 5862 5863 5863 5864 5866 5866 5867 5867 5867 5867 5868 5868 5869 5870 5870 5870 5870 5870 5869 5869 5869 5868 5867 5866 5866 5866 5865 5863 5862 5860 5860 5858 5857 5856 5855 5855 5854 5854 5853 5852 5851 5851 5850 5849 5848 5848 5848 5846 5846 5845 5844 5844 5844 5843 5843 5842 5839 5836 5836 5836 5835 5834 5833 5832 5831 5830 5828
5819 5821 5822 5825 5827 5830 5834 5835 5837 5840 5842 5845 5848 5851 5853 5854 5856 5858 5859 5860 5861 5862 5863 5864 5865 5865 5865 5865 5866 5866 5867 5868 5868 5868 5868 5868 5868 5867 5867 5867 5866 5864 5864 5864 5863 5862 5861 5860 5859 5857 5856 5855 5854 5854 5853 5852 5852 5851 5850 5849 5848 5847 5846 5846 5846 5845 5843 5843 5842 5841 5841 5840 5840 5840 5838 5835 5833 5833 5833 5833 5831 5830 5830 5828 5826
5816 5818 5820 5822 5824 5827 5830 5832 5834 5837 5840 5842 5845 5848 5850 5852 5854 5855 5856 5857 5859 5860 5861 5862 5863 5863 5864 5864 5864 5865 5865 5866 5867 5867 5867 5867 5866 5866 5866 5865 5864 5863 5862 5863 5862 5861 5860 5859 5857 5856 5855 5854 5853 5852 5852 5851 5850 5850 5849 5848 5847 5846 5845 5845 5844 5843 5841 5840 5840 5839 5838 5837 5836 5836 5836 5835 5833 5831 5831 5832 5830 5829 5827 5826 5824
5812 5814 5817 5819 5821 5823 5826 5829 5831 5834 5837 5839 5841 5844 5847 5849 5851 5852 5853 5854 5856 5858 5860 5861 5861 5862 5862 5862 5863 5863 5864 5864 5865 5865 5865 5865 5865 5864 5864 5863 5863 5862 5861 5861 5861 5859 5858 5857 5857 5855 5854 5853 5852 5851 5850 5850 5849 5849 5848 5847 5846 5845 5844 5843 5842 5842 5840 5839 5838 5837 5837 5835 5833 5832 5833 5833 5832 5831 5829 5830 5830 5828 5826 5825 5823
5808 5811 5813 5815 5818 5820 5822 5825 5828 5830 5833 5835 5838 5840 5843 5845 5847 5849 5851 5852 5853 5855 5858 5860 5860 5860 5861 5861 5861 5861 5862 5862 5863 5863 5864 5863 5863 5863 5862 5862 5861 5860 5860 5860 5860 5858 5856 5856 5856 5855 5853 5852 5851 5849 5849 5848 5848 5847 5847 5845 5844 5843 5842 5842 5841 5840 5839 5838 5836 5835 5835 5834 5832 5830 5830 5830 5830 5830 5828 5827 5828 5827 5826 5824 5822
5804 5807 5810 5811 5813 5817 5819 5821 5824 5827 5829 5832 5834 5837 5840 5842 5844 5846 5849 5850 5851 5854 5857 5859 5858 5858 5859 5859 5859 5859 5860 5860 5861 5861 5862 5862 5862 5861 5861 5860 5859 5859 5858 5858 5858 5857 5855 5854 5854 5853 5852 5850 5849 5848 5848 5847 5846 5846 5845 5844 5843 5841 5840 5840 5839 5838 5838 5836 5835 5833 5832 5832 5831 5828 5827 5827 5827 5827 5826 5825 5824 5824 5824 5822 5821
5800 5803 5805 5807 5809 5812 5815 5817 5821 5823 5825 5828 5831 5833 5836 5839 5841 5844 5846 5848 5849 5851 5854 5855 5855 5856 5856 5856 5857 5857 5858 5858 5858 5859 5860 5860 5860 5860 5859 5858 5858 5857 5856 5856 5856 5856 5854 5852 5851 5851 5851 5849 5848 5847 5846 5845 5845 5844 5843 5842 5841 5840 5838 5838 5837 5836 5836 5835 5833 5832 5831 5830 5830 5828 5826 5826 5825 5824 5823 5822 5821 5820 5820 5820 5819
5795 5797 5800 5803 5805 5808 5811 5814 5816 5818 5820 5823 5826 5829 5831 5834 5838 5841 5843 5845 5846 5847 5849 5852 5853 5853 5854 5854 5855 5855 5856 5856 5856 5857 5857 5858 5858 5858 5857 5857 5856 5855 5855 5854 5854 5854 5853 5852 5850 5849 5849 5848 5847 5845 5844 5844 5843 5842 5842 5841 5840 5839 5837 5836 5836 5835 5834 5833 5832 5830 5829 5828 5828 5828 5826 5825 5824 5823 5821 5821 5820 5818 5817 5816 5815
5790 5792 5795 5798 5801 5803 5806 5809 5812 5814 5816 5819 5822 5825 5827 5830 5834 5837 5839 5841 5843 5844 5846 5848 5850 5851 5852 5853 5853 5854 5854 5854 5855 5855 5855 5856 5856 5856 5856 5855 5854 5854 5853 5853 5852 5852 5852 5851 5850 5848 5847 5846 5845 5844 5843 5842 5841 5840 5840 5839 5838 5837 5836 5835 5835 5834 5832 5832 5831 5829 5827 5825 5824 5825 5825 5824 5822 5821 5819 5818 5818 5817 5815 5812 5811
5784 5787 5790 5793 5796 5799 5801 5805 5807 5810 5813 5815 5818 5821 5823 5826 5830 5833 5835 5837 5839 5841 5842 5845 5847 5848 5850 5851 5851 5852 5852 5852 5853 5853 5853 5853 5854 5854 5854 5854 5853 5852 5852 5851 5851 5850 5849 5848 5848 5847 5846 5844 5843 5843 5842 5841 5840 5839 5838 5837 5837 5836 5835 5834 5833 5832 5831 5830 5829 5828 5825 5823 5822 5822 5822 5822 5820 5819 5817 5816 5816 5815 5814 5811 5808
5778 5781 5784 5787 5790 5793 5797 5800 5803 5806 5809 5811 5814 5816 5818 5821 5825 5828 5831 5832 5835 5838 5839 5841 5843 5845 5846 5848 5849 5850 5850 5851 5851 5851 5851 5851 5851 5851 5852 5852 5851 5851 5850 5850 5849 5848 5847 5846 5845 5845 5844 5842 5841 5840 5840 5839 5838 5837 5836 5835 5834 5834 5832 5832 5831 5830 5830 5829 5828 5827 5825 5823 5821 5819 5819 5819 5818 5817 5815 5813 5812 5812 5812 5810 5808
5772 5775 5779 5781 5784 5787 5791 5795 5799 5801 5804 5806 5809 5811 5813 5816 5820 5823 5826 5828 5830 5833 5836 5838 5840 5841 5843 5845 5846 5847 5848 5849 5849 5849 5849 5849 5849 5849 5849 5850 5850 5849 5848 5848 5847 5846 5845 5844 5843 5843 5842 5841 5839 5838 5837 5836 5835 5835 5834 5833 5832 5831 5830 5829 5829 5828 5827 5826 5826 5825 5824 5822 5821 5819 5817 5816 5815 5814 5813 5811 5809 5808 5808 5808 5806